Miscellaneous Local Product
Issued by NWS North Platte, NE

Home | Current Version | Previous Version | Graphics & Text | Print | Product List | Glossary On
Versions: 1 2 3 4 5 6 7 8 9 10 11 12 13 14 15 16 17 18 19 20 21 22 23 24 25 26 27 28 29 30 31 32 33 34 35 36 37 38 39 40 41 42 43 44 45 46 47 48 49 50
000
AXUS43 KLBF 220510
MISLBF


WESTERN AND NORTH CENTRAL NEBRASKA HOURLY WEATHER ROUNDUP
NATIONAL WEATHER SERVICE NORTH PLATTE NE
1100 PM CST SUN DEC 21 2014

***STATIONS NOT REPORTING VARIABLES SUCH AS SKY/WEATHER OR
PRESSURE ARE PROVIDED BY THE NEBRASKA DEPARTMENT OF
ROADS...RAWS...AND APRS NETWORKS...AND ARE NOT UNDER
NATIONAL WEATHER SERVICE QUALITY CONTROL***

...OBSERVATIONS IN AND NEAR THE EASTERN PANHANDLE OF NEBRASKA...

CITY           SKY/WX    TMP DP  RH WIND       PRES   REMARKS
PINE RIDGE     PTCLDY    35  30  82 SW5       29.50R WCI  31
CHADRON        MOCLDY    39  31  72 W16       29.54R WCI  30
ALLIANCE       MOCLDY    35  30  82 W14       29.54R WCI  26
SIDNEY         CLOUDY    37  31  78 NW21      29.58R WCI  26
WHITECLAY        N/A     33  28  82 CALM        N/A
CRESCENT LAKE    N/A     39  31  75 NW10        N/A  WCI  32
LISCO            N/A     37  31  79 W14         N/A  WCI  28
BIG SPRINGS      N/A     34  30  86 W7          N/A  WCI  28
$$

...OBSERVATIONS IN NORTH CENTRAL NEBRASKA...

CITY           SKY/WX    TMP DP  RH WIND       PRES   REMARKS
VALENTINE      CLOUDY    37  31  78 W12       29.46R WCI  29
THEDFORD       CLOUDY    36  32  85 W8        29.48R WCI  30
AINSWORTH      MOCLDY    33  32  94 S6        29.46S WCI  28
O`NEILL        LGT RAIN  38  38  98 S14       29.49S WCI  30
BROKEN BOW     CLOUDY    37  35  92 S7        29.49S WCI  32
BROWNLEE         N/A     39  32  77 W10         N/A  WCI  32
SPRINGVIEW       N/A     36  32  86 CALM        N/A
BREWSTER         N/A     34  34 100 W3          N/A
ROSE             N/A     37  37  99 E7          N/A  WCI  31
SARGENT          N/A     37  36  95 CALM        N/A
COMSTOCK         N/A     40  40  99 S9          N/A  WCI  34
CHAMBERS         N/A     37  36  98 S5G13       N/A  WCI  33
EWING            N/A     38  37  97 CALM        N/A
$$

...OBSERVATIONS IN SOUTHWEST NEBRASKA AND FAR NORTHEAST COLORADO...

CITY           SKY/WX    TMP DP  RH WIND       PRES   REMARKS
WRAY           CLOUDY    40  33  78 NW10      29.56R WCI  33
HOLYOKE        FAIR      41  34  75 W12G17    29.56R
IMPERIAL       CLOUDY    41  30  65 NW12      29.52R
OGALLALA       MOCLDY    31  29  93 W8        29.52R WCI  23
NORTH PLATTE   MOCLDY    27  26  96 NW6       29.50R WCI  20
MCCOOK         MOCLDY    34  32  92 SW6       29.51R FOG     WCI  29
LEXINGTON      CLOUDY    39  37  93 S13       29.50R WCI  32
PAXTON           N/A     34  31  90 W3          N/A
BRADY            N/A     34  30  86 CALM        N/A
GOTHENBURG       N/A     38  34  86 SW3         N/A
CALLAWAY         N/A     34  33  96 S5          N/A  WCI  30
$$

...NORTH PLATTE AREA...

CITY           SKY/WX    TMP DP  RH WIND       PRES   REMARKS
AIRPORT        MOCLDY    27  26  96 NW6       29.50R WCI  20
DOWNTOWN         N/A     32  29  90 CALM        N/A
$$

...SOME WEATHER OBSERVATIONS FROM AROUND THE REGION...

CITY           SKY/WX    TMP DP  RH WIND       PRES   REMARKS
DENVER         RAIN      38  35  89 N18G29    29.66R FOG     WCI  28
LARAMIE        MOCLDY    26  24  92 NW16      29.66F WCI  14
CHEYENNE       MOCLDY    33  23  66 NW16G23   29.63F WCI  23
SCOTTSBLUFF    CLOUDY    38  31  76 W16       29.59R WCI  29
RAPID CITY     CLOUDY    41  33  73 NW21G31   29.48R
PIERRE         MOCLDY    26  24  92 W3        29.42R
WINNER         CLOUDY    39  31  72 SW8       29.44R WCI  33
SIOUX FALLS    CLOUDY    39  37  92 S18G28    29.54S WCI  30
OMAHA          DRIZZLE   43  41  93 S18       29.66F
GRAND ISLAND   CLOUDY    41  39  93 S15       29.55F
KANSAS CITY    CLOUDY    43  38  82 S16       29.75F
WICHITA        CLOUDY    45  42  89 S17G24    29.65F FOG
HAYS           CLOUDY    43  36  75 S12       29.56F
LIBERAL        PTCLDY    37  28  70 SW5       29.56F WCI  34
GOODLAND       CLOUDY    42  36  79 W18       29.56R
$$



USA.gov is the U.S. government's official web portal to all federal, state and local government web resources and services.